Погода в Частых

Россия / Пермский край     57°17′35″N   54°58′10″E
темп.,
°C
ветер,
м/с
пор.,
м/с
влажн.,
%
обл.,
%
осадки,
мм/ч
давл.,
гПа
погр.,
м
20 апреля, вт
вт2023:000св23540 0.0 103438
02:00−1всв11600 0.0 103512
05:00−1св11584 0.0 103610
08:00+1всв11495 0.0 1036122
11:00+6с11345 0.0 1035917
14:00+8зсз11305 0.0 10341307
17:00+8зсз22305 0.0 10331280
20:00+6сз11430 0.0 103210
21 апреля, ср
ср2123:00+4с00480 0.0 103310
02:00+2в11570 0.0 103210
05:00+1ююв11600 0.0 103310
08:00+3вюв12522 0.0 1033115
11:00+8ююв343760 0.0 1032871
14:00+11ююв5631100 0.0 10301338
17:00+12ююв5733100 0.0 10281306
20:00+9ююв3946100 0.0 1028323
22 апреля, чт
чт2223:00+7ююв41252100 0.0 1028335
02:00+6ююв41256100 0.0 1027390
05:00+5ю51269100 0.1 1028850
08:00+5ю71274100 0.0 10281021
11:00+4ю61292100 0.1 1028867
14:00+4ю61294100 3.1 1029893
17:00+4ю61396100 4.8 1029832
20:00+5ю61189100 0.1 1029849
23 апреля, пт
пт2323:00+4ю41096100 0.1 1029707
02:00+4ю3897100 0.0 1028486
05:00+4ююв3796100 0.1 1028554
08:00+4ю3797100 0.0 1028578
11:00+4ю3797100 0.1 1028511
14:00+4ю2597100 0.0 1028423
17:00+5ю3595100 0.1 1028448
20:00+5ююв249398 0.0 1028238
24 апреля, сб
сб2423:00+4всв119536 0.0 102710
02:00+4всв1194100 0.0 102620
05:00+3св2495100 0.0 102597
08:00+4св3791100 0.0 1023240
11:00+6св4783100 0.0 1021477
14:00+7всв3685100 0.1 1019352
17:00+6всв4793100 0.4 1018430
20:00+6всв3796100 0.6 1017339